weather.gov     
National Weather Service

Regional Weather Roundup
NWS Homepage
This page is being discontinued on March 12, 2014.
The same data is available at this site. Please update your bookmarks.
Thank you, and we apologize for the inconvenience.
Please send an email to SR-SRH.Webmaster@noaa.gov with any concerns.


Current Version
Previous Version:    01  02  03  04  05  06  07  08  09  10  11  12  13  14  15  16  17  18  19  20  21  22  23  24  25  26  27  28  29  30  
   31  32  33  34  35  36  37  38  39  40  41  42  43  44  45  46  47  48  49  50  51  52  53  54  55  56  57  58  59  60  
[Printable]
494
ASUS44 KOHX 231415
RWROHX
MIDDLE TENNESSEE HOURLY WEATHER ROUNDUP
NATIONAL WEATHER SERVICE NASHVILLE TN
900 AM CDT WED APR 23 2014

NOTE: "FAIR" INDICATES FEW OR NO CLOUDS BELOW 12,000 FEET WITH
NO SIGNIFICANT WEATHER AND/OR OBSTRUCTIONS TO VISIBILITY.

* THESE REPORTS ARE NOT UNDER NWS QUALITY CONTROL AND MAY NOT
  REPORT WEATHER SUCH AS PRECIPITATION AND FOG.


TNZ005>011-023>034-057-059-062>066-078-080-231500
...NORTHERN MIDDLE TENNESSEE...

CITY           SKY/WX    TMP DP  RH WIND       PRES   REMARKS
BAXTER*          N/A     57  39  51 NE2         N/A
BRENTWOOD*       N/A     57  39  51 NE5         N/A
CASTALIAN SPRG   N/A     54  39  58 E2          N/A
CLARKSVILLE    SUNNY     53  36  52 E12       30.10R
COLUMBIA       SUNNY     57  46  67 NE9       30.06R
CROSSVILLE     SUNNY     51  30  44 NE10      30.05R
GALLATIN         N/A     54  35  48 E7        30.10R
DICKSON        SUNNY     54  34  47 E9        30.07R
FAIRFIELD GLAD   N/A     50  34  53 N3          N/A
GOODLETTSVILLE   N/A     55  37  50 CALM        N/A
JOELTON*         N/A     55  37  50 NE1         N/A
KINGSTON SPGS*   N/A     52  39  62 NE2         N/A
LAFAYETTE*       N/A     48  36  61 N6          N/A
MONTEREY         N/A     52  36  54 CALM        N/A
MOUNT JULIET*    N/A     55  37  50 CALM        N/A
NASHVILLE      SUNNY     57  33  40 NE15      30.09R
OLD HICKORY*     N/A     55  39  54 SW2         N/A
PEGRAM*          N/A    N/A N/A N/A E3          N/A
PORTLAND       SUNNY     52  34  50 NE12      30.08R
SMYRNA         SUNNY     56  35  45 NE12      30.09R
SPARTA         SUNNY     54  36  50 N7        30.06R
SPRINGFIELD*     N/A     55  41  58 MISG        N/A
WHITE BLUFF*     N/A     55  37  50 W2          N/A
$$
TNZ056-058-060-061-075>077-079-093>097-231500
...SOUTHERN MIDDLE TENNESSEE...

CITY           SKY/WX    TMP DP  RH WIND       PRES   REMARKS
BELLEVUE*        N/A     57  39  51 CALM        N/A
CULLEOKA*        N/A     55  37  50 NE2         N/A
EAGLEVILLE*      N/A    N/A N/A N/A SE3         N/A
FAIRVIEW*        N/A     57  39  51 NW2         N/A
FAYETTEVILLE   SUNNY     55  39  54 NE12      30.04R
LEWISBURG      SUNNY     56  38  50 E9        30.06R
MANCHESTER*      N/A     55  43  62 NE6         N/A
MCMINNVILLE      N/A     54  36  50 NE9       30.06R
MOUNT PLEASANT   N/A     59  46  63 E3          N/A
MURFREESBORO   SUNNY     56  36  47 NE8       30.07R
SHELBYVILLE    SUNNY     55  41  58 N8        30.07R
SPRING HILL*     N/A     55  37  50 NE8         N/A
TULLAHOMA      SUNNY     55  34  44 NE9       30.06R
WINCHESTER     SUNNY     55  39  54 NE6       30.05R
$$


...KEY TO REMARKS...
VSB - VISIBILITY IN MILES
WCI - WIND CHILL INDEX
HX  - HEAT INDEX





U.S. Dept. of Commerce
NOAA National Weather Service
1325 East West Highway
Silver Spring, MD 20910
E-mail: w-nws.webmaster@noaa.gov
Page last modified: May 16, 2007
NATIONAL WEATHER SERVICE: for Safety, for Work, for Fun - FOR LIFE